#timestamp,LO_Frequency,Hit,StdDev 
1547481615.6,286047000.3,N
1547481635.4,286047002.1,N
1547481655.2,286047001.8,N
1547481675.1,286047001.8,N
1547481676.0,286047001.8,N
1547481695.8,286047003.7,N
1547481715.7,286047003.9,N
1547481735.5,286047001.8,N
1547481755.3,286047001.7,N
1547481775.2,286047002.0,N
1547481795.0,286046999.8,N
1547481795.9,286046999.8,N
1547481815.8,286047000.0,N
1547481835.6,286047000.9,N
1547481855.4,286047000.1,N
1547481875.3,286047002.3,N
1547481895.1,286047002.4,N
1547481915.9,286046998.2,N
1547481935.7,286047001.0,N
1547481955.5,286046999.9,N
1547481975.4,286047002.0,N
1547481995.2,286047002.4,N
1547482015.1,286047002.3,N
1547482016.0,286047002.3,N
1547482035.8,286047002.1,N
1547482055.6,286046999.8,N
1547482075.5,286046999.8,N
1547482095.3,286047001.9,N
1547482115.1,286047000.2,N
1547482135.9,286046999.8,N
1547482155.7,286047002.5,N
1547482175.6,286047000.8,N
1547482195.4,286046998.5,N
1547482215.2,286047000.4,N
1547482235.1,286047002.7,N
1547482236.0,286047002.7,N
1547482255.8,286047001.8,N
1547482275.6,286047001.9,N
1547482295.5,286047002.2,N
1547482315.3,286047001.6,N
1547482335.2,286047002.8,N
1547482355.0,286047002.4,N
1547482355.9,286047002.4,N
1547482375.7,286047000.8,N
1547482395.6,286047001.0,N
1547482415.4,286047002.8,N
1547482435.3,286047000.5,N
1547482455.1,286047001.9,N
1547482456.0,286047001.9,N
1547482475.8,286047002.6,N
1547482495.7,286047002.6,N
1547482515.5,286047004.4,Y
1547482535.3,286047000.3,P
1547482555.2,286047000.6,N
1547482575.0,286046998.6,N
1547482575.9,286046998.6,N
1547482595.8,286047000.8,N
1547482615.6,286046998.1,N
1547482635.4,286046998.5,N
1547482655.3,286046998.5,N
1547482675.1,286046998.5,N
1547482695.8,286046998.5,N
1547482715.7,286047001.2,N
1547482735.5,286046998.9,N
1547482755.4,286046999.1,N
1547482775.2,286046998.6,N
1547482795.0,286046998.1,N
1547482795.9,286046998.1,N
1547482815.8,286047000.2,N
1547482835.6,286047001.2,N
1547482855.5,286046998.4,N
1547482875.3,286046998.7,N
1547482895.1,286046998.7,N
1547482915.9,286046998.9,N
1547482935.7,286046998.5,N
1547482955.5,286046999.0,N
1547482975.4,286047001.2,N
1547482995.2,286046998.2,N
1547483015.0,286047000.8,N
1547483016.0,286047000.8,N
1547483035.8,286046998.7,N
1547483055.6,286046998.2,N
1547483075.5,286047000.7,N
1547483095.3,286046999.7,N
1547483115.1,286047000.3,N
1547483135.9,286047000.2,N
1547483155.7,286047000.1,N
1547483175.6,286046999.7,N
1547483195.4,286047000.4,N
1547483215.2,286047000.6,N
1547483235.1,286047000.6,N
1547483236.0,286047000.6,N
1547483255.8,286047000.4,N
1547483275.6,286047000.4,N
1547483295.5,286046998.7,N
1547483315.3,286047000.4,N
1547483335.2,286046998.2,N
1547483355.9,286047000.6,N
1547483375.7,286046999.9,N
1547483395.6,286046998.2,N
1547483415.4,286046998.8,N
1547483435.3,286046998.7,N
1547483455.1,286046998.2,N
1547483456.0,286046998.2,N
1547483475.8,286046996.5,Y
1547483495.7,286046996.5,P
1547483515.5,286046998.8,N
1547483535.3,286046998.3,N
1547483555.2,286046998.1,N
1547483575.0,286047001.2,N
1547483575.9,286047001.2,N
1547483595.8,286047000.3,N
1547483615.6,286046999.9,N
1547483635.4,286047000.5,N
1547483655.3,286047000.1,N
1547483675.1,286047000.4,N
1547483695.9,286046998.5,N
1547483715.7,286046998.6,N
1547483735.5,286046999.6,N
1547483755.4,286046998.4,N
1547483775.2,286047001.1,N
1547483795.0,286047001.2,N
1547483795.9,286047001.2,N
1547483815.8,286046998.6,N
1547483835.6,286046999.7,N
1547483855.5,286046998.1,N
1547483875.3,286046998.4,N
1547483895.1,286046998.4,N
1547483915.9,286047000.4,N
1547483935.7,286047000.3,N
1547483955.5,286047002.3,N
1547483975.4,286047000.4,N
1547483995.2,286047001.1,N
1547484015.1,286046999.6,N
1547484016.0,286046999.6,N
1547484035.8,286047001.2,N
1547484055.6,286046999.4,N
1547484075.5,286046998.1,N
1547484095.3,286047000.3,N
1547484115.1,286047000.0,N
1547484135.9,286047000.5,N
1547484155.7,286046999.9,N
1547484175.6,286047002.7,N
1547484195.4,286047000.9,N
1547484215.2,286047002.7,N
1547484235.1,286047004.4,Y
1547484236.0,286047004.4,P
1547484255.8,286047003.8,N
1547484275.6,286047004.1,N
1547484295.5,286047003.9,N
1547484315.3,286047003.9,N
1547484335.2,286046999.8,N
1547484355.9,286046999.9,N
1547484375.7,286047001.2,N
1547484395.6,286046998.2,N
1547484415.4,286047001.2,N
1547484435.3,286046998.9,N
1547484455.1,286047001.2,N
1547484456.0,286047001.2,N
1547484475.8,286047000.3,N
1547484495.7,286047002.7,N
1547484515.5,286047004.2,N
1547484535.3,286047002.2,N
1547484555.2,286046999.9,N
1547484575.0,286047001.7,N
1547484575.9,286047001.7,N
1547484595.8,286047001.8,N
1547484615.6,286047002.2,N
1547484635.4,286047002.1,N
1547484655.3,286047003.8,N
1547484675.1,286047004.1,N
1547484695.9,286047004.4,N
1547484715.7,286047004.3,N
1547484735.5,286047001.8,N
1547484755.4,286047002.0,N
1547484775.2,286047002.0,N
1547484795.0,286047002.5,N
1547484796.0,286047002.5,N
1547484815.8,286047001.4,N
1547484835.6,286047001.8,N
1547484855.5,286047002.8,N
1547484875.3,286046999.8,N
1547484895.1,286047000.4,N
1547484915.9,286046998.9,N
1547484935.7,286046998.7,N
1547484955.6,286047000.5,N
1547484975.4,286046998.3,N
1547484995.2,286046998.8,N
1547485015.1,286047001.2,N
1547485016.0,286047001.2,N
1547485035.8,286046998.8,N
1547485055.6,286046999.0,N
1547485075.5,286046998.7,N
1547485095.3,286046999.9,N
1547485115.2,286047000.0,N
1547485135.9,286047000.4,N
1547485155.7,286047001.0,N
1547485175.6,286047000.7,N
1547485195.4,286047000.1,N
